Home   Weather   Siegburg   Past weeks

Flag for Germany Past Weather in Siegburg, North Rhine-Westphalia, Germany — Yesterday and Last 2 Weeks

Now
49 °F

Partly sunny.


Feels Like: 49 °F
Forecast: 39 / 65 °F
Wind: 1 mph from West

Location: Aachen-Orsbach

Current Time: Apr 29, 2017 at 1:30:09 pm

Latest Report: Apr 29, 2017 at 12:00 pm


Visibility: 13 mi

Pressure: 30.09 "Hg

Humidity: 53%

Dew Point: 33 °F

Location of SiegburgLocation

Past Weather in Siegburg — Graph

°F

Siegburg Temperature Yesterday

Maximum temperature yesterday: 50 °F (at 4:00 pm)
Minimum temperature yesterday: 33 °F (at 4:00 am)
Average temperature yesterday: 41 °F

High & Low Weather Summary for the Past Weeks

 TemperatureHumidityPressure
High56 °F (Apr 24, 4:00 pm)98% (Apr 15, 12:00 pm)30.65 "Hg (Apr 15, 12:00 pm)
Low31 °F (Apr 26, 7:00 am)35% (Apr 20, 4:00 pm)29.72 "Hg (Apr 25, 3:00 am)
Average43 °F70%30.17 "Hg
* Reported Apr 14 12:00 pm — Apr 29 12:00 pm, Siegburg, Weather by CustomWeather, © 2017

Note: Actual official high and low records may vary slightly from our data, if they occured in-between our weather recording intervals... More about our weather records

Advertising

Siegburg Weather History for the Previous 24 Hours

Scroll right to see more
 ConditionsComfort  
Time TempWeatherWind HumidityBarometerVisibility
12:00 pm
Sat, Apr 29
49 °FPartly sunny.1 mph53%30.09 "Hg13 mi
10:00 am46 °FScattered clouds.2 mph68%30.09 "Hg14 mi
9:00 am43 °FPassing clouds.2 mph75%30.09 "Hg19 mi
7:00 am36 °FPassing clouds.1 mph87%30.09 "Hg11 mi
6:00 am34 °FClear.2 mph90%30.09 "Hg11 mi
4:00 am38 °FPassing clouds.2 mph82%30.08 "Hg22 mi
3:00 am35 °FPassing clouds.2 mph87%30.08 "Hg22 mi
1:00 am36 °FClear.2 mph83%30.07 "Hg28 mi
12:00 am39 °FPassing clouds.3 mph80%30.06 "Hg34 mi
10:00 pm
Fri, Apr 28
43 °FOvercast.3 mph75%30.03 "Hg34 mi
9:00 pm44 °FOvercast.3 mph78%30.01 "Hg16 mi
7:00 pm47 °FOvercast.5 mph72%29.99 "Hg18 mi
6:00 pm48 °FOvercast.3 mph66%29.98 "Hg25 mi
4:00 pm50 °FPartly sunny.6 mph66%29.96 "Hg22 mi
3:00 pm47 °FSprinkles. Overcast.6 mph73%29.96 "Hg19 mi
2:00 pmN/APassing clouds.5 mphN/AN/A6 mi
1:00 pm48 °FPartly sunny.5 mph73%29.96 "Hg16 mi
Weather by CustomWeather, © 2017

See weather overviewHow to use our weather pages